status,avgMeasuredTime,avgSpeed,extID,medianMeasuredTime,TIMESTAMP,vehicleCount,_id,REPORT_ID
OK,102,37,866,102,2014-08-01T08:00:00,1,20746921,187032
OK,102,37,866,102,2014-08-01T08:05:00,3,20747370,187032
OK,91,41,866,91,2014-08-01T08:10:00,4,20747743,187032
OK,91,41,866,91,2014-08-01T08:15:00,2,20748192,187032
OK,91,41,866,91,2014-08-01T08:20:00,0,20748641,187032
OK,68,55,866,68,2014-08-01T08:25:00,1,20749090,187032
OK,71,53,866,71,2014-08-01T08:30:00,4,20749539,187032
OK,90,42,866,90,2014-08-01T08:35:00,4,20749988,187032
OK,119,31,866,119,2014-08-01T08:40:00,2,20750437,187032
OK,134,28,866,134,2014-08-01T08:45:00,1,20750886,187032
OK,134,28,866,134,2014-08-01T08:50:00,0,20751335,187032
OK,63,60,866,63,2014-08-01T08:55:00,1,20751784,187032
OK,63,60,866,63,2014-08-01T09:00:00,0,20752233,187032
OK,117,32,866,117,2014-08-01T09:05:00,2,20752682,187032
OK,130,29,866,130,2014-08-01T09:10:00,3,20753131,187032
OK,133,28,866,133,2014-08-01T09:15:00,2,20753580,187032
OK,90,42,866,90,2014-08-01T09:20:00,3,20754029,187032
OK,90,42,866,90,2014-08-01T09:25:00,3,20754478,187032
OK,89,42,866,89,2014-08-01T09:30:00,4,20754927,187032
OK,73,52,866,73,2014-08-01T09:35:00,3,20755376,187032
OK,115,33,866,115,2014-08-01T09:40:00,2,20755825,187032
OK,161,23,866,161,2014-08-01T09:45:00,1,20756274,187032
OK,161,23,866,161,2014-08-01T09:50:00,0,20756723,187032
OK,161,23,866,161,2014-08-01T09:55:00,0,20757172,187032
OK,161,23,866,161,2014-08-01T10:00:00,0,20757621,187032
OK,161,23,866,161,2014-08-01T10:05:00,0,20758070,187032
OK,88,43,866,88,2014-08-01T10:10:00,3,20758519,187032
OK,116,32,866,116,2014-08-01T10:15:00,7,20758968,187032
OK,101,37,866,101,2014-08-01T10:20:00,6,20759417,187032
OK,101,37,866,101,2014-08-01T10:25:00,4,20759866,187032
OK,97,39,866,97,2014-08-01T10:30:00,2,20760315,187032
OK,110,34,866,110,2014-08-01T10:35:00,2,20760764,187032
OK,130,29,866,130,2014-08-01T10:40:00,2,20761213,187032
OK,119,31,866,119,2014-08-01T10:45:00,1,20761662,187032
OK,73,52,866,73,2014-08-01T10:50:00,2,20762111,187032
OK,78,48,866,78,2014-08-01T10:55:00,3,20762560,187032
OK,94,40,866,94,2014-08-01T11:00:00,6,20763009,187032
OK,92,41,866,92,2014-08-01T11:05:00,8,20763458,187032
OK,91,41,866,91,2014-08-01T11:10:00,5,20763907,187032
OK,79,48,866,79,2014-08-01T11:15:00,1,20764355,187032
OK,160,23,866,160,2014-08-01T11:20:00,1,20764804,187032
OK,160,23,866,160,2014-08-01T11:25:00,1,20765253,187032
OK,160,23,866,160,2014-08-01T11:30:00,0,20765702,187032
OK,110,34,866,110,2014-08-01T11:35:00,1,20766151,187032
OK,149,25,866,149,2014-08-01T11:40:00,3,20766600,187032
OK,104,36,866,104,2014-08-01T11:45:00,5,20767049,187032
OK,83,45,866,83,2014-08-01T11:50:00,4,20767498,187032
OK,110,34,866,110,2014-08-01T11:55:00,1,20767947,187032
OK,148,25,866,148,2014-08-01T12:00:00,2,20768396,187032
OK,155,24,866,155,2014-08-01T12:05:00,4,20768845,187032
OK,155,24,866,155,2014-08-01T12:10:00,2,20769294,187032
OK,162,23,866,162,2014-08-01T12:15:00,0,20769743,187032
OK,162,23,866,162,2014-08-01T12:20:00,0,20770192,187032
OK,125,30,866,125,2014-08-01T12:25:00,2,20770641,187032
OK,124,30,866,124,2014-08-01T12:30:00,3,20771090,187032
OK,59,64,866,59,2014-08-01T12:35:00,1,20771539,187032
OK,82,46,866,82,2014-08-01T12:40:00,4,20771988,187032
OK,82,46,866,82,2014-08-01T12:45:00,5,20772437,187032
OK,124,30,866,124,2014-08-01T12:50:00,3,20772886,187032
OK,117,32,866,117,2014-08-01T12:55:00,2,20773335,187032
OK,117,32,866,117,2014-08-01T13:00:00,0,20773784,187032
OK,117,32,866,117,2014-08-01T13:05:00,0,20774233,187032
OK,71,53,866,71,2014-08-01T13:10:00,1,20774682,187032
OK,148,25,866,148,2014-08-01T13:15:00,1,20775131,187032
OK,120,31,866,120,2014-08-01T13:20:00,2,20775580,187032
OK,93,40,866,93,2014-08-01T13:25:00,3,20776029,187032
OK,107,35,866,107,2014-08-01T13:30:00,2,20776478,187032
OK,126,30,866,126,2014-08-01T13:35:00,0,20776927,187032
OK,169,22,866,169,2014-08-01T13:40:00,2,20777376,187032
OK,169,22,866,169,2014-08-01T13:45:00,2,20777825,187032
OK,169,22,866,169,2014-08-01T13:50:00,0,20778274,187032
OK,213,17,866,213,2014-08-01T13:55:00,1,20778723,187032
OK,152,24,866,152,2014-08-01T14:00:00,2,20779172,187032
OK,92,41,866,92,2014-08-01T14:05:00,1,20779621,187032
OK,109,34,866,109,2014-08-01T14:10:00,2,20780070,187032
OK,109,34,866,109,2014-08-01T14:15:00,2,20780519,187032
OK,107,35,866,107,2014-08-01T14:20:00,1,20780968,187032
OK,131,28,866,131,2014-08-01T14:25:00,3,20781417,187032
OK,142,26,866,142,2014-08-01T14:30:00,3,20781866,187032
OK,142,26,866,142,2014-08-01T14:35:00,1,20782315,187032
OK,138,27,866,138,2014-08-01T14:40:00,2,20782764,187032
OK,138,27,866,138,2014-08-01T14:45:00,2,20783213,187032
OK,63,60,866,63,2014-08-01T14:50:00,1,20783662,187032
OK,75,50,866,75,2014-08-01T14:55:00,2,20784111,187032
OK,88,43,866,88,2014-08-01T15:00:00,1,20784560,187032
OK,88,43,866,88,2014-08-01T15:05:00,0,20785009,187032
OK,88,43,866,88,2014-08-01T15:10:00,0,20785458,187032
OK,116,32,866,116,2014-08-01T15:15:00,1,20785907,187032
OK,116,32,866,116,2014-08-01T15:20:00,1,20786356,187032
OK,146,26,866,146,2014-08-01T15:25:00,1,20786805,187032
OK,146,26,866,146,2014-08-01T15:30:00,1,20787254,187032
OK,131,28,866,131,2014-08-01T15:35:00,1,20787703,187032
OK,131,28,866,131,2014-08-01T15:40:00,1,20788152,187032
OK,107,35,866,107,2014-08-01T15:45:00,1,20788601,187032
OK,130,29,866,130,2014-08-01T15:50:00,2,20789050,187032
OK,126,30,866,126,2014-08-01T15:55:00,2,20789499,187032
OK,126,30,866,126,2014-08-01T16:00:00,2,20789948,187032
OK,126,30,866,126,2014-08-01T16:05:00,0,20790397,187032
OK,121,31,866,121,2014-08-01T16:10:00,3,20790846,187032
OK,116,32,866,116,2014-08-01T16:15:00,4,20791295,187032
OK,64,59,866,64,2014-08-01T16:20:00,1,20791744,187032
OK,64,59,866,64,2014-08-01T16:25:00,0,20792193,187032
OK,64,59,866,64,2014-08-01T16:30:00,0,20792642,187032
OK,64,59,866,64,2014-08-01T16:35:00,0,20793091,187032
OK,105,36,866,105,2014-08-01T16:40:00,1,20793540,187032
OK,105,36,866,105,2014-08-01T16:45:00,1,20793989,187032
OK,105,36,866,105,2014-08-01T16:50:00,0,20794438,187032
OK,105,36,866,105,2014-08-01T16:55:00,0,20794887,187032
OK,105,36,866,105,2014-08-01T17:00:00,0,20795336,187032
OK,105,36,866,105,2014-08-01T17:05:00,0,20795785,187032
OK,105,36,866,105,2014-08-01T17:10:00,0,20796234,187032
OK,105,36,866,105,2014-08-01T17:15:00,0,20796683,187032
OK,105,36,866,105,2014-08-01T17:20:00,0,20797132,187032
OK,134,28,866,134,2014-08-01T17:25:00,1,20797581,187032
OK,134,28,866,134,2014-08-01T17:30:00,0,20798030,187032
OK,115,33,866,115,2014-08-01T17:35:00,2,20798479,187032
OK,114,33,866,114,2014-08-01T17:40:00,3,20798928,187032
OK,71,53,866,71,2014-08-01T17:45:00,1,20799377,187032
OK,71,53,866,71,2014-08-01T17:50:00,0,20799826,187032
OK,71,53,866,71,2014-08-01T17:55:00,0,20800275,187032
OK,111,34,866,111,2014-08-01T18:00:00,2,20800724,187032
OK,111,34,866,111,2014-08-01T18:05:00,2,20801173,187032
OK,136,27,866,136,2014-08-01T18:10:00,0,20801622,187032
OK,136,27,866,136,2014-08-01T18:15:00,0,20802071,187032
OK,136,27,866,136,2014-08-01T18:20:00,0,20802520,187032
OK,136,27,866,136,2014-08-01T18:25:00,0,20802969,187032
OK,111,34,866,111,2014-08-01T18:30:00,2,20803418,187032
OK,111,34,866,111,2014-08-01T18:35:00,2,20803867,187032
OK,116,32,866,116,2014-08-01T18:40:00,0,20804316,187032
OK,116,32,866,116,2014-08-01T18:45:00,0,20804765,187032
OK,59,64,866,59,2014-08-01T18:50:00,1,20805214,187032
OK,123,30,866,123,2014-08-01T18:55:00,3,20805663,187032
OK,123,30,866,123,2014-08-01T19:00:00,1,20806112,187032
OK,123,30,866,123,2014-08-01T19:05:00,0,20806561,187032
OK,123,30,866,123,2014-08-01T19:10:00,0,20807010,187032
OK,123,30,866,123,2014-08-01T19:15:00,0,20807459,187032
OK,87,43,866,87,2014-08-01T19:20:00,1,20807908,187032
OK,87,43,866,87,2014-08-01T19:25:00,1,20808357,187032
OK,87,43,866,87,2014-08-01T19:30:00,0,20808806,187032
OK,87,43,866,87,2014-08-01T19:35:00,0,20809255,187032
OK,87,43,866,87,2014-08-01T19:40:00,0,20809704,187032
OK,87,43,866,87,2014-08-01T19:45:00,0,20810153,187032
OK,165,23,866,165,2014-08-01T19:50:00,2,20810602,187032
OK,166,22,866,166,2014-08-01T19:55:00,2,20811051,187032
OK,67,56,866,67,2014-08-01T22:00:00,0,20816780,187032
OK,67,56,866,67,2014-08-01T22:05:00,0,20817229,187032
OK,82,46,866,82,2014-08-02T00:00:00,0,20823219,187032
OK,82,46,866,82,2014-08-02T00:05:00,0,20823668,187032
OK,82,46,866,82,2014-08-02T00:10:00,0,20824117,187032
OK,82,46,866,82,2014-08-02T00:15:00,0,20824566,187032
OK,82,46,866,82,2014-08-02T00:20:00,0,20825015,187032
OK,82,46,866,82,2014-08-02T00:25:00,0,20825464,187032
OK,82,46,866,82,2014-08-02T00:30:00,0,20825913,187032
OK,82,46,866,82,2014-08-02T00:35:00,0,20826362,187032
OK,82,46,866,82,2014-08-02T00:40:00,0,20826811,187032
OK,82,46,866,82,2014-08-02T00:45:00,0,20827260,187032
OK,82,46,866,82,2014-08-02T00:50:00,0,20827709,187032
OK,82,46,866,82,2014-08-02T00:55:00,0,20828158,187032
OK,82,46,866,82,2014-08-02T01:00:00,0,20828607,187032
OK,82,46,866,82,2014-08-02T01:05:00,0,20829056,187032
OK,82,46,866,82,2014-08-02T01:10:00,0,20829505,187032
OK,82,46,866,82,2014-08-02T01:15:00,0,20829954,187032
OK,82,46,866,82,2014-08-02T01:20:00,0,20830403,187032
OK,82,46,866,82,2014-08-02T01:25:00,0,20830852,187032
OK,82,46,866,82,2014-08-02T01:30:00,0,20831301,187032
OK,82,46,866,82,2014-08-02T01:35:00,0,20831750,187032
OK,82,46,866,82,2014-08-02T01:40:00,0,20832199,187032
OK,82,46,866,82,2014-08-02T01:45:00,0,20832648,187032
OK,82,46,866,82,2014-08-02T01:50:00,0,20833097,187032
OK,82,46,866,82,2014-08-02T01:55:00,0,20833546,187032
OK,82,46,866,82,2014-08-02T02:00:00,0,20833995,187032
OK,82,46,866,82,2014-08-02T02:05:00,0,20834444,187032
OK,90,42,866,90,2014-08-02T02:10:00,1,20834893,187032
OK,93,40,866,93,2014-08-02T02:15:00,1,20835342,187032
OK,93,40,866,93,2014-08-02T02:20:00,0,20835791,187032
OK,93,40,866,93,2014-08-02T02:25:00,0,20836240,187032
OK,93,40,866,93,2014-08-02T02:30:00,0,20836689,187032
OK,93,40,866,93,2014-08-02T02:35:00,0,20837138,187032
OK,93,40,866,93,2014-08-02T02:40:00,0,20837587,187032
OK,93,40,866,93,2014-08-02T02:45:00,0,20838036,187032
OK,61,62,866,61,2014-08-02T02:50:00,1,20838485,187032
OK,61,62,866,61,2014-08-02T02:55:00,1,20838934,187032
OK,61,62,866,61,2014-08-02T03:00:00,0,20839383,187032
OK,61,62,866,61,2014-08-02T03:05:00,0,20839832,187032
OK,61,62,866,61,2014-08-02T03:10:00,0,20840281,187032
OK,61,62,866,61,2014-08-02T03:15:00,0,20840730,187032
OK,61,62,866,61,2014-08-02T03:20:00,0,20841179,187032
OK,61,62,866,61,2014-08-02T03:25:00,0,20841628,187032
OK,61,62,866,61,2014-08-02T03:30:00,0,20842077,187032
OK,61,62,866,61,2014-08-02T03:35:00,0,20842526,187032
OK,61,62,866,61,2014-08-02T03:40:00,0,20842975,187032
OK,61,62,866,61,2014-08-02T03:45:00,0,20843424,187032
OK,61,62,866,61,2014-08-02T03:50:00,0,20843873,187032
OK,61,62,866,61,2014-08-02T03:55:00,0,20844322,187032
OK,86,44,866,86,2014-08-02T06:00:00,1,20851776,187032
OK,86,44,866,86,2014-08-02T06:05:00,0,20852225,187032
OK,86,44,866,86,2014-08-02T06:10:00,0,20852674,187032
OK,86,44,866,86,2014-08-02T06:15:00,0,20853123,187032
OK,86,44,866,86,2014-08-02T06:20:00,0,20853572,187032
OK,86,44,866,86,2014-08-02T06:25:00,0,20854021,187032
OK,86,44,866,86,2014-08-02T06:30:00,0,20854470,187032
OK,86,44,866,86,2014-08-02T06:35:00,0,20854919,187032
OK,86,44,866,86,2014-08-02T06:40:00,0,20855368,187032
OK,86,44,866,86,2014-08-02T06:45:00,0,20855817,187032
OK,86,44,866,86,2014-08-02T06:50:00,0,20856266,187032
OK,86,44,866,86,2014-08-02T06:55:00,0,20856715,187032
OK,86,44,866,86,2014-08-02T07:00:00,0,20857164,187032
OK,86,44,866,86,2014-08-02T07:05:00,0,20857613,187032
OK,86,44,866,86,2014-08-02T07:10:00,0,20858062,187032
OK,123,30,866,123,2014-08-02T07:15:00,1,20858511,187032
OK,117,32,866,117,2014-08-02T07:20:00,2,20858960,187032
OK,117,32,866,117,2014-08-02T07:25:00,0,20859409,187032
OK,117,32,866,117,2014-08-02T07:30:00,0,20859858,187032
OK,82,46,866,82,2014-08-02T07:35:00,2,20860307,187032
OK,107,35,866,107,2014-08-02T07:40:00,5,20860756,187032
OK,108,35,866,108,2014-08-02T07:45:00,4,20861205,187032
OK,108,35,866,108,2014-08-02T07:50:00,0,20861654,187032
OK,74,51,866,74,2014-08-02T07:55:00,1,20862103,187032
OK,74,51,866,74,2014-08-02T08:00:00,1,20862552,187032
OK,136,27,866,136,2014-08-02T08:05:00,2,20863001,187032
OK,136,27,866,136,2014-08-02T08:10:00,2,20863450,187032
OK,112,33,866,112,2014-08-02T08:15:00,1,20863899,187032
OK,112,33,866,112,2014-08-02T08:20:00,0,20864348,187032
OK,119,31,866,119,2014-08-02T08:25:00,1,20864797,187032
OK,119,31,866,119,2014-08-02T08:30:00,0,20865246,187032
OK,67,56,866,67,2014-08-02T08:35:00,1,20865695,187032
OK,99,38,866,99,2014-08-02T08:40:00,2,20866144,187032
OK,131,28,866,131,2014-08-02T08:45:00,1,20866593,187032
OK,131,28,866,131,2014-08-02T08:50:00,0,20867042,187032
OK,121,31,866,121,2014-08-02T08:55:00,2,20867491,187032
OK,121,31,866,121,2014-08-02T09:00:00,3,20867940,187032
OK,74,51,866,74,2014-08-02T09:05:00,3,20868389,187032
OK,105,36,866,105,2014-08-02T09:10:00,1,20868838,187032
OK,105,36,866,105,2014-08-02T09:15:00,0,20869287,187032
OK,105,36,866,105,2014-08-02T09:20:00,0,20869736,187032
OK,105,36,866,105,2014-08-02T09:25:00,0,20870185,187032
OK,105,36,866,105,2014-08-02T09:30:00,0,20870634,187032
OK,251,15,866,251,2014-08-02T09:35:00,1,20871083,187032
OK,251,15,866,251,2014-08-02T09:40:00,1,20871532,187032
OK,251,15,866,251,2014-08-02T09:45:00,0,20871981,187032
OK,128,29,866,128,2014-08-02T09:50:00,1,20872430,187032
OK,128,29,866,128,2014-08-02T09:55:00,1,20872879,187032
OK,103,36,866,103,2014-08-02T10:00:00,1,20873328,187032
OK,103,36,866,103,2014-08-02T10:05:00,1,20873777,187032
OK,80,47,866,80,2014-08-02T10:10:00,1,20874226,187032
OK,81,46,866,81,2014-08-02T10:15:00,2,20874675,187032
OK,75,50,866,75,2014-08-02T10:20:00,1,20875124,187032
OK,75,50,866,75,2014-08-02T10:25:00,1,20875573,187032
OK,69,55,866,69,2014-08-02T10:30:00,1,20876022,187032
OK,101,37,866,101,2014-08-02T10:35:00,2,20876471,187032
OK,134,28,866,134,2014-08-02T10:40:00,1,20876920,187032
OK,134,28,866,134,2014-08-02T10:45:00,0,20877369,187032
OK,134,28,866,134,2014-08-02T10:50:00,0,20877818,187032
OK,76,49,866,76,2014-08-02T10:55:00,2,20878267,187032
OK,97,39,866,97,2014-08-02T11:00:00,4,20878716,187032
OK,119,31,866,119,2014-08-02T11:05:00,2,20879165,187032
OK,128,29,866,128,2014-08-02T11:10:00,0,20879614,187032
OK,128,29,866,128,2014-08-02T11:15:00,0,20880063,187032
OK,128,29,866,128,2014-08-02T11:20:00,0,20880512,187032
OK,128,29,866,128,2014-08-02T11:25:00,0,20880961,187032
OK,128,29,866,128,2014-08-02T11:30:00,0,20881410,187032
OK,128,29,866,128,2014-08-02T11:35:00,0,20881859,187032
OK,140,27,866,140,2014-08-02T11:40:00,1,20882308,187032
OK,140,27,866,140,2014-08-02T11:45:00,1,20882757,187032
OK,70,54,866,70,2014-08-02T11:50:00,1,20883206,187032
OK,70,54,866,70,2014-08-02T11:55:00,1,20883655,187032
OK,70,54,866,70,2014-08-02T12:00:00,0,20884104,187032
OK,92,41,866,92,2014-08-02T12:05:00,1,20884553,187032
OK,74,51,866,74,2014-08-02T12:10:00,2,20885002,187032
OK,57,66,866,57,2014-08-02T12:15:00,1,20885451,187032
OK,116,32,866,116,2014-08-02T12:20:00,1,20885900,187032
OK,116,32,866,116,2014-08-02T12:25:00,1,20886349,187032
OK,84,45,866,84,2014-08-02T12:30:00,1,20886798,187032
OK,84,45,866,84,2014-08-02T12:35:00,1,20887247,187032
OK,75,50,866,75,2014-08-02T12:40:00,1,20887696,187032
OK,75,50,866,75,2014-08-02T12:45:00,1,20888145,187032
OK,75,50,866,75,2014-08-02T12:50:00,0,20888594,187032
OK,75,50,866,75,2014-08-02T12:55:00,0,20889043,187032
OK,127,29,866,127,2014-08-02T13:00:00,1,20889492,187032
OK,127,29,866,127,2014-08-02T13:05:00,3,20889941,187032
OK,126,30,866,126,2014-08-02T13:10:00,3,20890390,187032
OK,87,43,866,87,2014-08-02T13:15:00,1,20890839,187032
OK,91,41,866,91,2014-08-02T13:20:00,1,20891288,187032
OK,85,44,866,85,2014-08-02T13:25:00,2,20891737,187032
OK,74,51,866,74,2014-08-02T13:30:00,2,20892186,187032
OK,112,33,866,112,2014-08-02T13:35:00,3,20892635,187032
OK,108,35,866,108,2014-08-02T13:40:00,4,20893084,187032
OK,96,39,866,96,2014-08-02T13:45:00,3,20893533,187032
OK,63,60,866,63,2014-08-02T13:50:00,2,20893982,187032
OK,86,44,866,86,2014-08-02T13:55:00,2,20894431,187032
OK,105,36,866,105,2014-08-02T14:00:00,1,20894880,187032
OK,70,54,866,70,2014-08-02T14:05:00,1,20895329,187032
OK,71,53,866,71,2014-08-02T14:10:00,1,20895778,187032
OK,65,58,866,65,2014-08-02T14:15:00,2,20896227,187032
OK,65,58,866,65,2014-08-02T14:20:00,2,20896676,187032
OK,68,55,866,68,2014-08-02T14:25:00,1,20897125,187032
OK,68,55,866,68,2014-08-02T14:30:00,1,20897574,187032
OK,64,59,866,64,2014-08-02T14:35:00,1,20898023,187032
OK,98,38,866,98,2014-08-02T14:40:00,2,20898472,187032
OK,133,28,866,133,2014-08-02T14:45:00,1,20898921,187032
OK,133,28,866,133,2014-08-02T14:50:00,0,20899370,187032
OK,133,28,866,133,2014-08-02T14:55:00,0,20899819,187032
OK,83,45,866,83,2014-08-02T15:00:00,1,20900268,187032
OK,82,46,866,82,2014-08-02T15:05:00,1,20900717,187032
OK,114,33,866,114,2014-08-02T15:10:00,1,20901166,187032
OK,114,33,866,114,2014-08-02T15:15:00,1,20901615,187032
OK,114,33,866,114,2014-08-02T15:20:00,0,20902064,187032
OK,114,33,866,114,2014-08-02T15:25:00,0,20902513,187032
OK,114,33,866,114,2014-08-02T15:30:00,0,20902962,187032
OK,114,33,866,114,2014-08-02T15:35:00,0,20903411,187032
OK,86,44,866,86,2014-08-02T15:40:00,1,20903860,187032
OK,86,44,866,86,2014-08-02T15:45:00,0,20904309,187032
OK,86,44,866,86,2014-08-02T15:50:00,0,20904758,187032
OK,78,48,866,78,2014-08-02T15:55:00,1,20905207,187032
OK,78,48,866,78,2014-08-02T16:00:00,1,20905656,187032
OK,78,48,866,78,2014-08-02T16:05:00,0,20906105,187032
OK,94,40,866,94,2014-08-02T16:10:00,2,20906554,187032
OK,94,40,866,94,2014-08-02T16:15:00,2,20907003,187032
OK,94,40,866,94,2014-08-02T16:20:00,0,20907452,187032
OK,94,40,866,94,2014-08-02T16:25:00,0,20907901,187032
OK,135,28,866,135,2014-08-02T16:30:00,1,20908350,187032
OK,135,28,866,135,2014-08-02T16:35:00,1,20908799,187032
OK,135,28,866,135,2014-08-02T16:40:00,0,20909248,187032
OK,135,28,866,135,2014-08-02T16:45:00,0,20909697,187032
OK,135,28,866,135,2014-08-02T16:50:00,0,20910146,187032
OK,135,28,866,135,2014-08-02T16:55:00,0,20910595,187032
OK,135,28,866,135,2014-08-02T17:00:00,0,20911044,187032
OK,135,28,866,135,2014-08-02T17:05:00,0,20911493,187032
OK,110,34,866,110,2014-08-02T17:10:00,1,20911942,187032
OK,110,34,866,110,2014-08-02T17:15:00,1,20912391,187032
OK,92,41,866,92,2014-08-02T17:20:00,2,20912840,187032
OK,92,41,866,92,2014-08-02T17:25:00,2,20913289,187032
OK,119,31,866,119,2014-08-02T17:30:00,0,20913738,187032
OK,119,31,866,119,2014-08-02T17:35:00,0,20914187,187032
OK,119,31,866,119,2014-08-02T17:40:00,0,20914636,187032
OK,119,31,866,119,2014-08-02T17:45:00,0,20915085,187032
OK,119,31,866,119,2014-08-02T17:50:00,0,20915534,187032
OK,116,32,866,116,2014-08-02T17:55:00,3,20915983,187032
OK,116,32,866,116,2014-08-02T18:00:00,3,20916432,187032
OK,116,32,866,116,2014-08-02T18:05:00,0,20916881,187032
OK,116,32,866,116,2014-08-02T18:10:00,0,20917330,187032
OK,116,32,866,116,2014-08-02T18:15:00,0,20917779,187032
OK,83,45,866,83,2014-08-02T18:20:00,1,20918228,187032
OK,83,45,866,83,2014-08-02T18:25:00,1,20918677,187032
OK,102,37,866,102,2014-08-02T18:30:00,1,20919126,187032
OK,58,65,866,58,2014-08-02T18:35:00,1,20919575,187032
OK,58,65,866,58,2014-08-02T18:40:00,1,20920024,187032
OK,58,65,866,58,2014-08-02T18:45:00,0,20920473,187032
OK,58,65,866,58,2014-08-02T18:50:00,0,20920922,187032
OK,58,65,866,58,2014-08-02T18:55:00,0,20921371,187032
OK,58,65,866,58,2014-08-02T19:00:00,0,20921820,187032
OK,111,34,866,111,2014-08-02T19:05:00,2,20922269,187032
OK,111,34,866,111,2014-08-02T19:10:00,2,20922718,187032
OK,108,35,866,108,2014-08-02T19:15:00,0,20923167,187032
OK,108,35,866,108,2014-08-02T19:20:00,0,20923616,187032
OK,108,35,866,108,2014-08-02T19:25:00,0,20924065,187032
OK,108,35,866,108,2014-08-02T19:30:00,0,20924514,187032
OK,108,35,866,108,2014-08-02T19:35:00,0,20924963,187032
OK,108,35,866,108,2014-08-02T19:40:00,0,20925412,187032
OK,136,27,866,136,2014-08-02T19:45:00,1,20925861,187032
OK,136,27,866,136,2014-08-02T19:50:00,1,20926310,187032
OK,136,27,866,136,2014-08-02T19:55:00,0,20926759,187032
OK,136,27,866,136,2014-08-02T20:00:00,0,20927208,187032
OK,136,27,866,136,2014-08-02T20:05:00,0,20927657,187032
OK,136,27,866,136,2014-08-02T20:10:00,0,20928106,187032
OK,136,27,866,136,2014-08-02T20:15:00,0,20928555,187032
OK,136,27,866,136,2014-08-02T20:20:00,0,20929004,187032
OK,136,27,866,136,2014-08-02T20:25:00,0,20929453,187032
OK,136,27,866,136,2014-08-02T20:30:00,0,20929902,187032
OK,136,27,866,136,2014-08-02T20:35:00,0,20930351,187032
OK,60,63,866,60,2014-08-02T20:40:00,1,20930800,187032
OK,60,63,866,60,2014-08-02T20:45:00,1,20931249,187032
OK,60,63,866,60,2014-08-02T20:50:00,0,20931698,187032
OK,60,63,866,60,2014-08-02T20:55:00,0,20932147,187032
OK,58,65,866,58,2014-08-02T21:00:00,1,20932596,187032
OK,58,65,866,58,2014-08-02T21:05:00,0,20933045,187032
OK,58,65,866,58,2014-08-02T21:10:00,0,20933494,187032
OK,58,65,866,58,2014-08-02T21:15:00,0,20933943,187032
OK,58,65,866,58,2014-08-02T21:20:00,0,20934392,187032
OK,58,65,866,58,2014-08-02T21:25:00,0,20934841,187032
OK,58,65,866,58,2014-08-02T21:30:00,0,20935290,187032
OK,58,65,866,58,2014-08-02T21:35:00,0,20935739,187032
OK,72,52,866,72,2014-08-02T21:40:00,1,20936188,187032
OK,72,52,866,72,2014-08-02T21:45:00,1,20936637,187032
OK,72,52,866,72,2014-08-02T21:50:00,0,20937086,187032
OK,92,41,866,92,2014-08-02T21:55:00,1,20937535,187032
OK,92,41,866,92,2014-08-02T22:00:00,0,20937984,187032
OK,92,41,866,92,2014-08-02T22:05:00,0,20938433,187032
OK,92,41,866,92,2014-08-02T22:10:00,0,20938882,187032
OK,92,41,866,92,2014-08-02T22:15:00,0,20939331,187032
OK,92,41,866,92,2014-08-02T22:20:00,0,20939780,187032
OK,92,41,866,92,2014-08-02T22:25:00,0,20940229,187032
OK,92,41,866,92,2014-08-02T22:30:00,0,20940678,187032
OK,92,41,866,92,2014-08-02T22:35:00,0,20941127,187032
OK,93,40,866,93,2014-08-02T22:40:00,1,20941576,187032
OK,93,40,866,93,2014-08-02T22:45:00,0,20942025,187032
OK,93,40,866,93,2014-08-02T22:50:00,0,20942474,187032
OK,93,40,866,93,2014-08-02T22:55:00,0,20942923,187032
OK,93,40,866,93,2014-08-02T23:00:00,0,20943372,187032
OK,93,40,866,93,2014-08-02T23:10:00,0,20943821,187032
OK,88,43,866,88,2014-08-02T23:15:00,1,20944270,187032
OK,88,43,866,88,2014-08-02T23:20:00,1,20944719,187032
OK,88,43,866,88,2014-08-02T23:25:00,0,20945168,187032
OK,88,43,866,88,2014-08-02T23:30:00,0,20945617,187032
OK,88,43,866,88,2014-08-02T23:35:00,0,20946066,187032
OK,88,43,866,88,2014-08-02T23:40:00,0,20946515,187032
OK,88,43,866,88,2014-08-02T23:45:00,0,20946964,187032
OK,88,43,866,88,2014-08-02T23:50:00,0,20947413,187032
OK,88,43,866,88,2014-08-02T23:55:00,0,20947862,187032
OK,88,43,866,88,2014-08-03T00:00:00,0,20948311,187032
OK,88,43,866,88,2014-08-03T00:05:00,0,20948760,187032
OK,88,43,866,88,2014-08-03T00:10:00,0,20949208,187032
OK,88,43,866,88,2014-08-03T00:15:00,0,20949657,187032
OK,88,43,866,88,2014-08-03T00:20:00,0,20950106,187032
OK,88,43,866,88,2014-08-03T00:25:00,0,20950555,187032
OK,88,43,866,88,2014-08-03T00:30:00,0,20951004,187032
OK,88,43,866,88,2014-08-03T00:35:00,0,20951453,187032
OK,88,43,866,88,2014-08-03T00:40:00,0,20951902,187032
OK,88,43,866,88,2014-08-03T00:45:00,0,20952351,187032
OK,88,43,866,88,2014-08-03T00:50:00,0,20952800,187032
OK,88,43,866,88,2014-08-03T00:55:00,0,20953249,187032
OK,88,43,866,88,2014-08-03T01:00:00,0,20953698,187032
OK,88,43,866,88,2014-08-03T01:05:00,0,20954147,187032
OK,88,43,866,88,2014-08-03T01:10:00,0,20954596,187032
OK,88,43,866,88,2014-08-03T01:15:00,0,20955045,187032
OK,88,43,866,88,2014-08-03T01:20:00,0,20955494,187032
OK,88,43,866,88,2014-08-03T01:25:00,0,20955943,187032